Погода в Леове

Молдова     46°28′45″N   28°15′27″E
темп.,
°C
ветер,
м/с
пор.,
м/с
влажн.,
%
обл.,
%
осадки,
мм/ч
давл.,
гПа
погр.,
м
20 сентября, пн
пн2000:00+9с238465 0.0 101362
03:00+8ссв11875 0.0 101410
06:00+7ссз119040 0.0 101410
09:00+11ссз3571100 0.0 1015419
12:00+15сз345298 0.0 10151140
15:00+18сз2343100 0.0 10131498
18:00+15ссв4558100 0.2 1013448
21:00+13с4763100 0.3 1015500
21 сентября, вт
вт2100:00+10ссз5987100 2.3 1017485
03:00+9ссз5107780 2.4 1018647
06:00+9ссз51175100 0.0 1019741
09:00+9ссз51266100 0.0 10211049
12:00+12сз8124670 0.0 10211729
15:00+13ссз9124197 0.0 10211933
18:00+14ссз7113848 0.0 10211705
21:00+9с36565 0.0 1022102
22 сентября, ср
ср2200:00+7зсз22675 0.0 102219
03:00+6з227649 0.0 102214
06:00+5зсз228225 0.0 102116
09:00+10ссз6115993 0.0 10211131
12:00+14ссз6838100 0.0 10191730
15:00+15ссз6735100 0.0 10182138
18:00+15ссз5639100 0.0 10171120
21:00+11ссз3856100 0.0 1017284
23 сентября, чт
чт2300:00+10ссз5868100 0.0 1018657
03:00+8сз5878100 0.1 1017363
06:00+7ссз3781100 0.0 1017409
09:00+8ссз61074100 0.1 10181253
12:00+8сз587234 0.2 1018852
15:00+12сз785195 0.3 10171678
18:00+12ссз584918 0.1 10171389
21:00+8сз116781 0.1 101710
24 сентября, пт
пт2400:00+8ююз1168100 0.0 101712
03:00+7ююз227476 0.0 101627
06:00+6ююз3474100 0.0 101552
09:00+12ююз5105337 0.0 1014347
12:00+18юз6737100 0.0 1012901
15:00+21зюз6832100 0.0 10101711
18:00+21зсз6103779 0.0 1011695
21:00+17сз3448100 0.0 101369